timestamp,surface_pressure_avg,surface_temp_avg,battery_voltage,lat,long
2020-09-30 00:09:01+00:00,329.7263,15.27,12.81,47.84626,-54.09684
2020-09-30 00:19:01+00:00,321.9913,15.34,12.81,47.84626,-54.09684
2020-09-30 00:29:01+00:00,319.1364,15.18,12.81,47.84626,-54.09684
2020-09-30 00:39:01+00:00,314.8597,15.3,12.81,47.84626,-54.09684
2020-09-30 00:49:01+00:00,307.7263,15.4,12.81,47.84626,-54.09684
2020-09-30 00:59:01+00:00,302.7731,15.43,12.81,47.84626,-54.09684
2020-09-30 01:09:01+00:00,298.1097,15.47,12.81,47.84626,-54.09684
2020-09-30 01:19:01+00:00,290.5948,15.49,12.81,47.84626,-54.09684
2020-09-30 01:29:01+00:00,282.5897,15.34,12.81,47.84626,-54.09684
2020-09-30 01:39:01+00:00,276.863,15.39,12.81,47.84626,-54.09684
2020-09-30 01:49:01+00:00,267.2465,15.45,12.81,47.84626,-54.09684
2020-09-30 01:59:01+00:00,255.2114,15.44,12.81,47.84626,-54.09684
2020-09-30 02:09:01+00:00,248.1414,15.45,12.81,47.84626,-54.09684
2020-09-30 02:19:01+00:00,242.3031,15.46,12.73,47.84626,-54.09684
2020-09-30 02:29:01+00:00,233.9714,15.48,12.73,47.84626,-54.09684
2020-09-30 02:39:01+00:00,225.2031,15.5,12.73,47.84626,-54.09684
2020-09-30 02:49:01+00:00,219.2982,15.5,12.73,47.84626,-54.09684
2020-09-30 02:59:01+00:00,215.0148,15.5,12.73,47.84626,-54.09684
2020-09-30 03:09:01+00:00,209.4798,15.5,12.73,47.84626,-54.09684
2020-09-30 03:19:01+00:00,204.6215,15.5,12.73,47.84626,-54.09684
2020-09-30 03:29:01+00:00,201.4664,15.5,12.73,47.84626,-54.09684
2020-09-30 03:39:01+00:00,198.7198,15.5,12.73,47.84626,-54.09684
2020-09-30 03:49:01+00:00,196.4665,15.49,12.73,47.84626,-54.09684
2020-09-30 03:59:01+00:00,194.9731,15.48,12.73,47.84626,-54.09684
2020-09-30 04:09:01+00:00,194.2231,15.47,12.73,47.84626,-54.09684
2020-09-30 04:19:01+00:00,193.3031,15.46,12.73,47.84626,-54.09684
2020-09-30 04:29:01+00:00,192.2914,15.44,12.73,47.84626,-54.09684
2020-09-30 04:39:01+00:00,192.6664,15.4,12.73,47.84626,-54.09684
2020-09-30 04:49:01+00:00,192.9281,15.3,12.73,47.84626,-54.09684
2020-09-30 04:59:01+00:00,194.0448,15.29,12.73,47.84626,-54.09684
2020-09-30 05:09:01+00:00,198.3581,15.23,12.73,47.84626,-54.09684
2020-09-30 05:19:01+00:00,199.3981,15.27,12.73,47.84626,-54.09684
2020-09-30 05:29:01+00:00,198.5098,15.3,12.73,47.84626,-54.09684
2020-09-30 05:39:01+00:00,200.6181,15.38,12.73,47.84626,-54.09684
2020-09-30 05:49:01+00:00,204.9565,15.4,12.73,47.84626,-54.09684
2020-09-30 05:59:01+00:00,206.2697,15.4,12.73,47.84626,-54.09684
2020-09-30 06:09:01+00:00,207.2415,15.4,12.73,47.84626,-54.09684
2020-09-30 06:19:01+00:00,212.8232,15.4,12.73,47.84626,-54.09684
2020-09-30 06:29:01+00:00,216.7115,15.4,12.73,47.84626,-54.09684
2020-09-30 06:39:01+00:00,218.9948,15.4,12.73,47.84626,-54.09684
2020-09-30 06:49:01+00:00,224.7998,15.4,12.73,47.84626,-54.09684
2020-09-30 06:59:01+00:00,228.5314,15.4,12.73,47.84626,-54.09684
2020-09-30 07:09:01+00:00,231.0265,15.4,12.73,47.84626,-54.09684
2020-09-30 07:19:01+00:00,237.0865,15.4,12.73,47.84626,-54.09684
2020-09-30 07:29:01+00:00,243.2747,15.39,12.73,47.84626,-54.09684
2020-09-30 07:39:01+00:00,244.9481,15.39,12.73,47.84626,-54.09684
2020-09-30 07:49:01+00:00,249.1947,15.34,12.73,47.84626,-54.09684
2020-09-30 07:59:01+00:00,258.9714,15.3,12.73,47.84626,-54.09684
2020-09-30 08:09:01+00:00,265.4647,15.3,12.73,47.84626,-54.09684
2020-09-30 08:19:01+00:00,268.843,15.3,12.65,47.84626,-54.09684
2020-09-30 08:29:01+00:00,274.6014,15.3,12.65,47.84626,-54.09684
2020-09-30 08:39:01+00:00,281.1547,15.3,12.65,47.84626,-54.09684
2020-09-30 08:49:01+00:00,284.0098,15.3,12.65,47.84626,-54.09684
2020-09-30 08:59:01+00:00,289.5414,15.28,12.65,47.84626,-54.09684
2020-09-30 09:09:01+00:00,297.0447,15.2,12.65,47.84626,-54.09684
2020-09-30 09:19:01+00:00,299.9829,15.1,12.65,47.84626,-54.09684
2020-09-30 09:29:01+00:00,301.9947,15.0,12.65,47.84626,-54.09684
2020-09-30 09:39:01+00:00,309.5696,15.09,12.65,47.84626,-54.09684
2020-09-30 09:49:01+00:00,316.8964,15.0,12.65,47.84626,-54.09684
2020-09-30 09:59:01+00:00,318.028,14.8,12.65,47.84626,-54.09684
2020-09-30 10:09:01+00:00,319.9564,14.8,12.65,47.84626,-54.09684
2020-09-30 10:19:01+00:00,325.8729,14.8,12.65,47.84626,-54.09684
2020-09-30 10:29:01+00:00,328.608,14.6,12.65,47.84626,-54.09684
2020-09-30 10:39:01+00:00,329.1462,14.6,12.65,47.84626,-54.09684
2020-09-30 10:49:01+00:00,331.093,14.59,12.65,47.84626,-54.09684
2020-09-30 10:59:01+00:00,334.528,14.59,12.65,47.84626,-54.09684
2020-09-30 11:09:01+00:00,334.2913,14.6,12.65,47.84626,-54.09684
2020-09-30 11:19:01+00:00,332.468,14.6,12.65,47.84626,-54.09684
2020-09-30 11:29:01+00:00,334.3230000000001,14.68,12.65,47.84626,-54.09684
2020-09-30 11:39:01+00:00,335.6346,14.69,12.65,47.84626,-54.09684
2020-09-30 11:49:01+00:00,333.1797,14.7,12.65,47.84626,-54.09684
2020-09-30 11:59:01+00:00,326.8612,14.7,12.65,47.84626,-54.09684
2020-09-30 12:09:01+00:00,325.4331,14.7,12.65,47.84626,-54.09684
2020-09-30 12:19:01+00:00,325.8013,14.7,12.73,47.84626,-54.09684
2020-09-30 12:29:01+00:00,324.1046,14.7,12.73,47.84626,-54.09684
2020-09-30 12:39:01+00:00,314.8447,14.7,12.73,47.84626,-54.09684
2020-09-30 12:49:01+00:00,311.3929,14.69,12.73,47.84626,-54.09684
2020-09-30 12:59:01+00:00,313.7314,14.7,12.73,47.84626,-54.09684
2020-09-30 13:09:01+00:00,307.4363,14.8,12.73,47.84626,-54.09684
2020-09-30 13:19:01+00:00,297.043,14.8,12.89,47.84626,-54.09684
2020-09-30 13:29:01+00:00,291.7848,14.79,12.89,47.84626,-54.09684
2020-09-30 13:39:01+00:00,285.2314,14.84,12.89,47.84626,-54.09684
2020-09-30 13:49:01+00:00,272.3297,14.9,12.89,47.84626,-54.09684
2020-09-30 13:59:01+00:00,260.8064,14.96,12.89,47.84626,-54.09684
2020-09-30 14:09:01+00:00,252.9998,14.94,12.89,47.84626,-54.09684
2020-09-30 14:19:01+00:00,243.4397,15.0,13.05,47.84626,-54.09684
2020-09-30 14:29:01+00:00,229.2347,15.0,13.05,47.84626,-54.09684
2020-09-30 14:39:01+00:00,218.4714,15.0,13.05,47.84626,-54.09684
2020-09-30 14:49:01+00:00,217.3065,15.01,13.05,47.84626,-54.09684
2020-09-30 14:59:01+00:00,214.6364,15.08,13.05,47.84626,-54.09684
2020-09-30 15:09:01+00:00,207.2581,15.26,13.05,47.84626,-54.09684
2020-09-30 15:19:01+00:00,203.4415,15.3,13.13,47.84626,-54.09684
2020-09-30 15:29:01+00:00,202.5915,15.33,13.13,47.84626,-54.09684
2020-09-30 15:39:01+00:00,195.1565,15.32,13.13,47.84626,-54.09684
2020-09-30 15:49:01+00:00,187.5631,15.3,13.13,47.84626,-54.09684
2020-09-30 15:59:01+00:00,188.5548,15.3,13.13,47.84626,-54.09684
2020-09-30 16:09:01+00:00,189.1214,15.2,13.13,47.84626,-54.09684
2020-09-30 16:19:01+00:00,186.3415,15.11,13.21,47.84626,-54.09684
2020-09-30 16:29:01+00:00,186.6748,15.1,13.21,47.84626,-54.09684
2020-09-30 16:39:01+00:00,187.3698,15.13,13.21,47.84626,-54.09684
2020-09-30 16:49:01+00:00,186.3282,15.18,13.21,47.84626,-54.09684
2020-09-30 16:59:01+00:00,187.4265,15.2,13.21,47.84626,-54.09684
2020-09-30 17:09:01+00:00,188.7548,15.2,13.21,47.84626,-54.09684
2020-09-30 17:19:01+00:00,188.0431,15.2,13.29,47.84626,-54.09684
2020-09-30 17:29:01+00:00,190.1031,15.2,13.29,47.84626,-54.09684
2020-09-30 17:39:01+00:00,192.1614,15.17,13.29,47.84626,-54.09684
2020-09-30 17:49:01+00:00,188.7415,15.18,13.29,47.84626,-54.09684
2020-09-30 17:59:01+00:00,186.4131,15.2,13.29,47.84626,-54.09684
2020-09-30 18:09:01+00:00,192.4815,15.18,13.29,47.84626,-54.09684
2020-09-30 18:19:01+00:00,199.7981,15.15,13.21,47.84626,-54.09684
2020-09-30 18:29:01+00:00,202.2314,15.19,13.21,47.84626,-54.09684
2020-09-30 18:39:01+00:00,208.7898,15.27,13.21,47.84626,-54.09684
2020-09-30 18:49:01+00:00,219.1281,15.2,13.21,47.84626,-54.09684
2020-09-30 18:59:01+00:00,222.1015,15.25,13.21,47.84626,-54.09684
2020-09-30 19:09:01+00:00,223.6515,15.29,13.21,47.84626,-54.09684
2020-09-30 19:19:01+00:00,232.4998,15.28,13.21,47.84626,-54.09684
2020-09-30 19:29:01+00:00,241.5764,15.2,13.21,47.84626,-54.09684
2020-09-30 19:39:01+00:00,243.4647,15.1,13.21,47.84626,-54.09684
2020-09-30 19:49:01+00:00,246.4897,15.1,13.21,47.84626,-54.09684
2020-09-30 19:59:01+00:00,255.8214,15.0,13.21,47.84626,-54.09684
2020-09-30 20:09:01+00:00,262.9514,15.0,13.21,47.84626,-54.09684
2020-09-30 20:19:01+00:00,264.4147,15.0,13.05,47.84626,-54.09684
2020-09-30 20:29:01+00:00,269.3481,15.0,13.05,47.84626,-54.09684
2020-09-30 20:39:01+00:00,278.3563,15.0,13.05,47.84626,-54.09684
2020-09-30 20:49:01+00:00,284.5764,15.1,13.05,47.84626,-54.09684
2020-09-30 20:59:01+00:00,287.5848,15.14,13.05,47.84626,-54.09684
2020-09-30 21:09:01+00:00,296.2947,15.3,13.05,47.84626,-54.09684
2020-09-30 21:19:01+00:00,305.8363,15.3,12.89,47.84626,-54.09684
2020-09-30 21:29:01+00:00,310.8546,15.3,12.89,47.84626,-54.09684
2020-09-30 21:39:01+00:00,314.4647,15.4,12.89,47.84626,-54.09684
2020-09-30 21:49:01+00:00,321.5896,15.46,12.89,47.84626,-54.09684
2020-09-30 21:59:01+00:00,329.528,15.1,12.89,47.84626,-54.09684
2020-09-30 22:09:01+00:00,338.0047,14.9,12.89,47.84626,-54.09684
2020-09-30 22:19:01+00:00,344.0629,14.9,12.81,47.84626,-54.09684
2020-09-30 22:29:01+00:00,348.4413,14.9,12.81,47.84626,-54.09684
2020-09-30 22:39:01+00:00,353.32300000000015,14.9,12.81,47.84626,-54.09684
2020-09-30 22:49:01+00:00,359.2729,14.9,12.81,47.84626,-54.09684
2020-09-30 22:59:01+00:00,361.2996,14.91,12.81,47.84626,-54.09684
2020-09-30 23:09:01+00:00,361.1896,14.96,12.81,47.84626,-54.09684
2020-09-30 23:19:01+00:00,363.0013,14.98,12.81,47.84626,-54.09684
2020-09-30 23:29:01+00:00,364.1363,15.0,12.81,47.84626,-54.09684
2020-09-30 23:39:01+00:00,360.5613,15.0,12.81,47.84626,-54.09684
2020-09-30 23:49:01+00:00,358.0312,15.0,12.81,47.84626,-54.09684
2020-09-30 23:59:01+00:00,358.0713,14.99,12.81,47.84626,-54.09684
